CW4352 Weather Reports


time (UTC)temp
F
wind
direction
speed
knots
gust
knots
rain 1hr
in
rain 24hr
in
rain mn
in
humidity
%
barometer
mb
20260904191203 84 9 0.9 1.7 0.00 0.00 0.00 34 1012.0
20260904190703 84 9 0.9 1.7 0.00 0.00 0.00 35 1012.0
20260904184704 85 9 0.9 1.7 0.00 0.00 0.00 39 1012.0
20260904183703 86 9 0.0 1.7 0.00 0.00 0.00 39 1012.0
20260904181203 88 9 0.9 2.6 0.00 0.00 0.00 35 1011.6
20260904174705 90 9 0.9 1.7 0.00 0.00 0.00 32 1011.6
20260904174205 91 9 0.9 1.7 0.00 0.00 0.00 31 1011.6
20260904171705 93 9 0.0 1.7 0.00 0.00 0.00 29 1011.6
20260904170705 93 9 1.7 2.6 0.00 0.00 0.00 29 1011.6
20260904164706 93 9 0.9 2.6 0.00 0.00 0.00 27 1011.6
20260904164205 94 5 1.7 2.6 0.00 0.00 0.00 28 1011.9
20260904160206 94 5 1.7 4.3 0.00 0.00 0.00 27 1011.9
20260904154205 94 19 1.7 5.2 0.00 0.00 0.00 28 1012.0
20260904153205 94 334 1.7 7.0 0.00 0.00 0.00 28 1012.0
20260904151705 95 23 1.7 2.6 0.00 0.00 0.00 27 1011.9
20260904143705 95 343 2.6 7.0 0.00 0.00 0.00 28 1012.1
20260904141205 95 23 1.7 2.6 0.00 0.00 0.00 28 1012.5
20260904140706 95 24 1.7 6.1 0.00 0.00 0.00 28 1012.5
20260904134205 94 355 1.7 2.6 0.00 0.00 0.00 28 1012.5
20260904130706 94 17 1.7 5.2 0.00 0.00 0.00 28 1012.8
20260904124706 94 28 0.9 4.3 0.00 0.00 0.00 29 1013.3
20260904124205 94 28 1.7 2.6 0.00 0.00 0.00 29 1013.3
20260904123705 93 44 1.7 5.2 0.00 0.00 0.00 31 1013.3
20260904123206 93 38 1.7 4.3 0.00 0.00 0.00 30 1013.3
20260904121706 92 14 2.6 6.1 0.00 0.00 0.00 32 1013.3
20260904120705 92 26 1.7 4.3 0.00 0.00 0.00 31 1013.6
20260904114706 92 51 0.9 2.6 0.00 0.00 0.00 33 1013.6
20260904113205 91 21 1.7 5.2 0.00 0.00 0.00 33 1013.9
20260904110205 90 22 1.7 5.2 0.00 0.00 0.00 34 1014.2
20260904104705 90 358 1.7 2.6 0.00 0.00 0.00 34 1014.2
20260904104205 90 27 1.7 4.3 0.00 0.00 0.00 34 1014.2
20260904103205 90 13 1.7 2.6 0.00 0.00 0.00 35 1014.5
20260904101705 89 37 0.9 4.3 0.00 0.00 0.00 37 1014.5
20260904101205 89 27 0.9 4.3 0.00 0.00 0.00 37 1014.5
20260904100705 89 22 1.7 2.6 0.00 0.00 0.00 37 1014.5
20260904100205 89 19 0.9 6.1 0.00 0.00 0.00 37 1014.5
20260904094706 88 45 1.7 2.6 0.00 0.00 0.00 36 1014.5
20260904094205 88 38 1.7 2.6 0.00 0.00 0.00 37 1014.8
20260904093205 87 38 2.6 4.3 0.00 0.00 0.00 38 1014.8
20260904091705 86 5 1.7 2.6 0.00 0.00 0.00 39 1014.8
20260904091206 86 5 0.9 2.6 0.00 0.00 0.00 39 1014.8
20260904084706 87 11 0.9 2.6 0.00 0.00 0.00 39 1014.8
20260904083205 87 311 0.9 4.3 0.00 0.00 0.00 37 1014.8
20260904081705 86 263 0.9 2.6 0.00 0.00 0.00 38 1014.6
20260904080205 85 263 0.9 2.6 0.00 0.00 0.00 39 1014.6
20260904074205 83 263 0.9 2.6 0.00 0.00 0.00 42 1014.6
20260904071707 80 263 0.0 1.7 0.00 0.00 0.00 46 1014.3
20260904071205 80 263 0.0 1.7 0.00 0.00 0.00 46 1014.3
20260904070704 79 263 0.9 2.6 0.00 0.00 0.00 48 1014.3
20260904070205 79 263 0.0 4.3 0.00 0.00 0.00 48 1014.6
20260904064705 77 263 1.7 2.6 0.00 0.00 0.00 50 1014.6
20260904064204 77 263 1.7 4.3 0.00 0.00 0.00 50 1014.6
20260904063705 77 263 1.7 2.6 0.00 0.00 0.00 50 1014.6
20260904063205 76 263 2.6 5.2 0.00 0.00 0.00 50 1014.6
20260904061205 74 263 1.7 5.2 0.00 0.00 0.00 54 1014.6
20260904060705 73 263 1.7 4.3 0.00 0.00 0.00 57 1014.6
20260904053705 72 263 0.0 1.7 0.00 0.00 0.00 60 1014.2
20260904051705 72 263 2.6 4.3 0.00 0.00 0.00 59 1014.2
20260904051205 72 263 2.6 4.3 0.00 0.00 0.00 59 1014.2
20260904050205 73 263 3.5 5.2 0.00 0.00 0.00 58 1014.2
20260904044705 72 263 2.6 5.2 0.00 0.00 0.00 58 1014.2
20260904043205 72 263 2.6 4.3 0.00 0.00 0.00 59 1013.9
20260904041705 72 263 0.9 2.6 0.00 0.00 0.00 60 1013.9
20260904040705 73 263 0.9 0.9 0.00 0.00 0.00 58 1013.9
20260904040205 73 263 0.0 4.3 0.00 0.00 0.00 58 1013.9
20260904033705 73 263 2.6 5.2 0.00 0.00 0.00 59 1013.7
20260904031705 73 263 1.7 2.6 0.00 0.00 0.00 58 1013.7
20260904031205 74 263 0.9 1.7 0.00 0.00 0.00 58 1013.7
20260904030205 74 263 1.7 4.3 0.00 0.00 0.00 57 1013.7
20260904024705 74 263 4.3 6.1 0.00 0.00 0.00 57 1013.8
20260904023205 74 263 1.7 6.1 0.00 0.00 0.00 57 1013.8
20260904021705 74 263 1.7 2.6 0.00 0.00 0.00 58 1013.8
20260904021205 74 263 1.7 4.3 0.00 0.00 0.00 58 1013.8
20260904020205 74 263 1.7 2.6 0.00 0.00 0.00 58 1013.8
20260904014705 74 263 1.7 2.6 0.00 0.00 0.00 58 1013.8
20260904014204 74 263 1.7 2.6 0.00 0.00 0.00 58 1013.8
20260904013205 74 263 2.6 4.3 0.00 0.00 0.00 57 1013.8
20260904004705 75 263 1.7 4.3 0.00 0.00 0.00 57 1013.8
20260904001705 75 265 0.9 2.6 0.00 0.00 0.00 57 1014.1
20260903234205 76 266 4.3 6.1 0.00 0.00 0.00 54 1014.2
20260903233705 76 266 4.3 6.1 0.00 0.00 0.00 55 1014.2
20260903233205 76 266 2.6 5.2 0.00 0.00 0.00 54 1014.2
20260903231704 77 266 0.9 2.6 0.00 0.00 0.00 54 1014.2
20260903230706 77 266 1.7 2.6 0.00 0.00 0.00 54 1013.2
20260903224204 77 284 2.6 5.2 0.00 0.00 0.00 54 1014.1
20260903223203 77 284 1.7 4.3 0.00 0.00 0.00 53 1013.8
20260903221704 78 284 0.0 1.7 0.00 0.00 0.00 53 1013.8
20260903221204 78 284 0.0 2.6 0.00 0.00 0.00 52 1013.8
20260903220704 78 284 1.7 4.3 0.00 0.00 0.00 52 1013.8
20260903213704 78 298 2.6 5.2 0.00 0.00 0.00 52 1013.8
20260903213204 78 299 0.9 6.1 0.00 0.00 0.00 51 1013.7
20260903211203 79 299 2.6 5.2 0.00 0.00 0.00 50 1013.7
20260903204203 79 313 2.6 5.2 0.00 0.00 0.00 50 1013.7
20260903203204 79 0 1.7 4.3 0.00 0.00 0.00 50 1013.7
20260903201704 79 5 2.6 2.6 0.00 0.00 0.00 50 1013.7
20260903201204 79 5 0.9 2.6 0.00 0.00 0.00 51 1013.7
20260903200703 79 5 1.7 2.6 0.00 0.00 0.00 50 1013.4
20260903200204 79 5 0.9 2.6 0.00 0.00 0.00 50 1013.4
20260903194704 80 5 0.9 1.7 0.00 0.00 0.00 49 1013.4
20260903194203 80 5 0.9 1.7 0.00 0.00 0.00 48 1013.4